Location: *
(44.1392°N, 4.8079°E)
Time: 07:46:36
(UTC+00:00)

USA 306 - Pass Details

Date: 21 June 2021
Orbit: 566 x 573 km, 54.0° (Epoch: 16 July)

Event Time Altitude Azimuth Distance (km) Brightness Sun altitude
Exits shadow 01:31:51 31° 249° (WSW) 1,014 3.8 -17.9°
Maximum altitude 01:33:48 70° 326° (NNW) 607 3.0 -17.8°
Drops below altitude 10° 01:38:03 10° 51° (NE) 1,872 6.6 -17.4°
Sets 01:40:19 0° 54° (NE) 2,771 7.6 -17.2°
